Newark, OH

5:17 PM EDT on September 27, 2016 (GMT -0400)
Newark Heath

Weather History for KVTA - August, 2014

Change the Weather History Date:

Monday, August 18, 2014

  Actual Average Record
Temperature  
Mean Temperature 74 °F -  
Max Temperature 84 °F 83 °F 97 °F (1940)
Min Temperature 64 °F 60 °F 44 °F (1981)
Cooling Degree Days 9    
Growing Degree Days 24 (Base 50)    
Moisture  
Dew Point 65 °F    
Average Humidity 83    
Maximum Humidity 96    
Minimum Humidity 55    
Precipitation  
Precipitation 0.00 in - - ()
Sea Level Pressure  
Sea Level Pressure 29.86 in    
Wind  
Wind Speed 2 mph (NE)    
Max Wind Speed 8 mph    
Max Gust Speed -    
Visibility 6 miles    
Events Fog    
Averages and records for this station are not official NWS values.
T = Trace of Precipitation, MM = Missing Value Source: NWS Daily Summary

Daily Weather History Graph

Daily Weather History Graph

Search for Another Location

Airport or City:

Trip Planner

Search our weather history database for the weather conditions in past years. The results will help you decide how hot, cold, wet, or windy it might be!

Date:

Astronomy

Aug. 18, 2014 Rise Set
Actual Time 6:44 AM EDT 8:22 PM EDT
Civil Twilight 6:15 AM EDT 8:51 PM EDT
Nautical Twilight 5:40 AM EDT 9:25 PM EDT
Astronomical Twilight 5:03 AM EDT 10:02 PM EDT
Moon 12:50 AM EDT (8/18) 3:24 PM EDT (8/18)
Length of Visible Light 14h 35m
Length of Day
13h 38m
Last Quarter, 38% of the Moon is Illuminated
Aug 18
Last Quarter
Aug 25
New
Sep 2
First Quarter
Sep 8
Full
Sep 15
Last Quarter

Hourly Weather History & Observations

Time (EDT) Temp. Heat Index Dew Point Humidity Pressure Visibility Wind Dir Wind Speed Gust Speed Precip Events Conditions
12:54 AM 69.1 °F - 66.0 °F 90% 29.92 in 6.0 mi Calm Calm - N/A   Overcast
1:54 AM 68.0 °F - 64.9 °F 90% 29.91 in 6.0 mi Calm Calm - N/A   Mostly Cloudy
2:54 AM 68.0 °F - 64.9 °F 90% 29.89 in 6.0 mi Calm Calm - N/A   Mostly Cloudy
3:30 AM 66.0 °F - 64.0 °F 93% 29.90 in 2.5 mi Calm Calm - N/A   Scattered Clouds
3:38 AM 66.9 °F - 64.0 °F 90% 29.90 in 4.0 mi NNE 3.5 mph - N/A   Partly Cloudy
3:54 AM 66.9 °F - 64.0 °F 90% 29.88 in 4.0 mi Calm Calm - N/A   Partly Cloudy
4:19 AM 64.9 °F - 63.0 °F 93% 29.90 in 1.5 mi Calm Calm - N/A   Partly Cloudy
4:44 AM 64.9 °F - 63.0 °F 93% 29.90 in 0.2 mi Calm Calm - N/A Fog Fog
4:54 AM 64.9 °F - 63.0 °F 93% 29.88 in 0.5 mi Calm Calm - N/A Fog Fog
5:07 AM 64.0 °F - 63.0 °F 96% 29.90 in 0.5 mi Calm Calm - N/A Fog Fog
5:17 AM 64.9 °F - 63.0 °F 93% 29.90 in 2.0 mi Calm Calm - N/A   Partly Cloudy
5:29 AM 64.0 °F - 63.0 °F 96% 29.90 in 1.0 mi Calm Calm - N/A   Mostly Cloudy
5:38 AM 66.0 °F - 64.0 °F 93% 29.90 in 3.0 mi NNE 3.5 mph - N/A   Overcast
5:54 AM 66.0 °F - 64.0 °F 93% 29.88 in 4.0 mi NE 3.5 mph - N/A   Overcast
6:54 AM 66.9 °F - 64.9 °F 93% 29.87 in 4.0 mi NE 3.5 mph - N/A   Overcast
7:54 AM 68.0 °F - 64.9 °F 90% 29.86 in 4.0 mi NE 3.5 mph - N/A   Overcast
8:54 AM 70.0 °F - 66.0 °F 87% 29.87 in 5.0 mi Variable 4.6 mph - N/A   Overcast
9:54 AM 71.1 °F - 66.0 °F 84% 29.87 in 7.0 mi NE 4.6 mph - N/A   Overcast
10:54 AM 73.0 °F - 66.0 °F 79% 29.87 in 9.0 mi ENE 8.1 mph - N/A   Overcast
11:54 AM 77.0 °F - 66.9 °F 71% 29.86 in 10.0 mi East 8.1 mph - N/A   Overcast
12:54 PM 79.0 °F - 66.0 °F 64% 29.85 in 10.0 mi East 3.5 mph - N/A   Overcast
1:54 PM 81.0 °F 83.0 °F 66.0 °F 60% 29.83 in 10.0 mi East 3.5 mph - N/A   Overcast
2:54 PM 82.0 °F 83.8 °F 64.9 °F 56% 29.82 in 10.0 mi Variable 3.5 mph - N/A   Overcast
3:54 PM 84.0 °F 86.3 °F 66.0 °F 55% 29.80 in 10.0 mi Calm Calm - N/A   Mostly Cloudy
4:54 PM 82.9 °F 85.8 °F 68.0 °F 60% 29.79 in 10.0 mi NNW 8.1 mph - N/A   Scattered Clouds
5:54 PM 82.0 °F 84.9 °F 68.0 °F 62% 29.79 in 10.0 mi North 8.1 mph - N/A   Partly Cloudy
7:54 PM 78.1 °F - 66.0 °F 66% 29.81 in 10.0 mi NE 3.5 mph - N/A   Mostly Cloudy
8:54 PM 73.9 °F - 66.9 °F 79% 29.81 in 10.0 mi NE 3.5 mph - N/A   Mostly Cloudy
9:54 PM 69.1 °F - 66.0 °F 90% 29.83 in 9.0 mi Calm Calm - N/A   Mostly Cloudy
10:54 PM 66.9 °F - 64.9 °F 93% 29.83 in 6.0 mi Calm Calm - N/A   Partly Cloudy